Wind_Speed
5 4 3 2 2 2 2 2 4 4 4 3 4 5 5 4 5 5 5 5 5 6 6 6 7 7 7 7 7 7 7 6 7 8 7 7 7 7 7 7 7 8 8
5 5 4 3 3 3 3 4 5 5 5 5 5 5 6 5 6 6 6 5 6 7 7 7 8 8 8 8 7 7 7 7 8 8 7 7 8 8 8 9 9 9 9
5 5 5 4 4 4 4 5 5 5 6 7 7 7 7 7 8 8 7 7 7 8 8 8 9 8 8 8 7 8 8 8 8 9 9 9 9 9 10 10 10 10 10
6 5 6 5 5 5 5 5 5 6 6 7 8 8 8 9 9 8 8 8 8 9 9 9 9 8 8 8 8 9 9 10 10 10 11 11 11 11 12 12 12 13 12
7 7 6 6 6 5 5 5 6 6 7 8 8 8 8 9 9 10 9 9 9 9 9 9 9 9 9 10 10 10 11 11 11 12 12 12 12 12 13 13 13 13 13
6 6 6 6 6 6 6 6 6 7 8 8 8 8 8 8 8 9 10 11 11 10 10 10 10 10 10 11 11 12 12 12 13 13 13 13 13 13 13 14 14 14 14
7 7 6 7 7 7 7 7 7 7 8 8 8 8 9 9 8 9 9 10 11 11 11 11 11 11 12 12 13 13 14 14 15 14 14 14 15 15 15 15 15 15 15
8 8 8 9 8 8 8 7 7 8 8 9 9 9 9 9 9 9 9 10 11 12 12 12 12 11 12 12 13 13 15 15 14 15 15 16 16 17 17 16 16 16 16
8 8 8 8 9 9 8 8 8 9 9 10 10 9 9 9 9 9 10 11 12 12 13 13 13 13 13 13 13 13 14 15 15 15 16 17 17 17 17 17 17 17 17
9 9 8 8 9 9 9 9 10 10 10 10 11 11 11 10 10 10 11 12 12 13 13 14 14 14 15 15 14 14 15 15 15 16 16 17 17 17 17 17 17 18 18
9 8 9 8 9 9 9 10 10 10 11 11 12 12 12 12 11 11 12 13 13 13 14 14 15 15 15 15 15 15 16 16 16 17 17 18 18 18 18 18 18 18 19
9 8 9 9 9 10 10 11 12 12 12 12 13 13 14 13 13 13 13 14 14 15 15 15 16 15 15 15 16 16 16 17 18 18 18 18 18 19 19 19 19 19 19
10 9 9 10 11 11 11 12 13 13 14 14 14 15 15 15 15 15 15 15 16 16 17 17 17 17 17 17 16 16 17 18 19 19 19 19 19 19 20 20 19 19 19
11 11 11 11 12 12 12 13 13 14 14 15 15 16 16 17 17 16 17 17 17 17 18 19 19 19 19 18 18 18 18 18 19 20 20 21 21 21 21 20 20 20 20
12 12 12 13 13 14 14 14 15 16 16 16 17 17 17 17 18 19 19 19 19 19 19 20 20 20 21 21 20 19 20 20 21 21 21 21 22 22 22 22 22 22 21
13 13 14 15 15 15 16 16 17 17 18 18 19 18 18 20 21 20 20 20 19 19 19 21 22 22 22 22 22 22 22 22 22 22 23 23 23 23 23 23 23 23 22
15 15 16 16 17 17 17 18 19 19 20 20 19 19 20 21 21 22 22 21 21 21 20 21 22 22 22 22 22 22 23 23 23 23 23 24 25 24 24 25 24 23 22
16 16 17 17 18 19 19 20 21 21 21 21 21 21 22 22 22 23 23 23 23 23 22 22 22 22 22 23 23 24 24 24 23 24 25 25 25 26 26 25 25 24 24
18 18 18 19 19 19 20 21 22 23 23 23 22 23 23 24 24 24 24 24 24 24 23 22 22 23 23 24 25 25 25 25 25 25 26 26 26 26 26 26 26 26 26
20 20 20 21 21 22 22 23 24 24 24 24 25 25 24 25 25 25 25 25 25 24 24 24 23 24 24 25 26 26 26 26 26 26 26 26 27 27 27 27 27 27 28
23 23 23 24 24 24 25 25 26 25 25 25 25 25 26 26 26 26 27 27 26 26 26 26 25 25 26 26 27 27 27 27 27 27 27 27 27 28 28 28 29 29 29
25 25 26 27 27 27 27 28 28 27 26 27 27 27 28 28 28 28 29 29 28 28 28 28 27 27 28 28 28 29 28 28 28 29 29 29 29 30 30 30 30 30 30
27 28 28 28 29 29 29 30 29 28 28 28 28 28 28 29 30 30 30 30 29 29 29 29 29 29 29 29 30 30 30 29 29 30 31 31 31 31 31 31 31 31 31
29 29 29 29 30 31 31 31 30 30 31 30 30 30 30 30 30 30 30 30 30 31 31 31 31 30 30 30 31 31 31 30 30 31 31 31 31 31 31 31 31 32 32
30 30 30 31 31 32 32 33 33 33 32 31 31 31 31 31 31 31 31 31 31 31 32 32 32 32 32 33 33 33 33 32 31 31 32 32 31 32 31 31 31 32 32
31 31 32 32 33 33 33 34 34 34 33 32 31 31 31 31 31 31 31 31 31 31 32 32 33 33 33 34 34 35 34 33 32 32 32 33 32 32 32 32 32 32 32
Wind_Direction
17 9 358 349 347 348 346 341 329 320 320 321 314 305 302 305 299 301 306 310 315 318 305 298 294 282 281 272 274 277 269 265 266 269 272 272 270 270 273 279 283 277 272
6 358 354 339 330 325 321 321 319 318 322 322 310 304 302 303 298 295 303 308 307 308 308 306 303 295 284 281 276 272 266 270 272 272 270 271 272 267 271 275 277 276 274
12 2 352 339 329 323 315 317 317 319 317 315 309 300 301 299 303 297 304 307 304 303 306 303 306 297 291 287 274 269 271 271 273 274 272 275 274 274 275 272 274 277 278
11 11 3 350 338 330 322 322 324 323 322 317 313 308 304 302 297 295 294 298 299 299 299 299 299 295 282 275 268 268 271 270 272 275 274 274 276 275 276 273 270 273 275
16 12 1 355 355 348 341 337 332 328 326 324 321 322 314 305 297 296 290 291 294 294 293 291 289 286 278 272 270 270 271 272 274 277 273 272 275 276 276 276 273 272 274
8 6 3 359 2 3 355 344 335 331 329 328 327 333 332 320 308 300 296 292 293 295 292 290 285 284 281 277 276 276 275 276 276 277 276 273 273 275 276 275 273 272 271
358 359 2 5 5 1 352 345 338 334 334 332 329 333 330 322 315 307 297 293 292 295 295 293 290 288 285 283 278 279 279 278 275 273 275 275 273 272 273 272 271 271 271
359 4 7 7 3 354 347 339 334 331 329 329 324 324 321 317 311 307 300 298 299 295 294 293 292 290 287 285 281 279 279 278 279 277 278 277 272 271 271 272 272 270 270
5 2 2 4 1 355 349 343 337 332 330 328 324 326 326 321 314 310 307 304 302 300 295 294 293 289 288 289 287 282 280 279 277 279 279 278 275 273 276 276 274 273 271
1 359 358 356 352 348 342 339 335 330 327 328 325 324 325 319 316 310 308 307 306 302 299 298 295 292 290 290 287 282 281 279 278 280 278 275 275 276 277 277 277 274 271
354 354 353 350 345 341 338 336 335 330 325 326 326 324 322 316 312 310 306 305 305 303 299 297 295 293 292 289 286 284 281 282 280 280 279 277 274 275 275 277 277 278 276
348 345 345 345 342 337 333 333 332 331 326 325 324 323 322 317 312 308 305 303 302 302 300 297 295 294 293 292 289 285 283 280 280 279 279 279 279 277 274 277 279 279 277
346 343 338 337 336 334 331 330 329 329 327 323 319 319 320 316 312 308 303 301 299 297 297 295 293 292 292 291 292 289 285 283 282 279 278 278 278 277 276 276 277 276 275
339 336 334 330 329 328 327 325 324 324 324 322 319 318 315 310 309 307 303 300 298 295 295 294 292 290 290 290 289 289 287 284 283 281 279 277 277 277 276 275 274 273 272
329 326 324 322 320 320 319 319 319 318 319 317 317 319 316 312 311 308 304 301 299 294 293 292 292 291 289 288 287 286 285 283 282 281 279 278 278 278 277 273 270 269 270
319 319 318 316 315 315 314 313 314 315 316 315 314 313 311 310 309 308 307 305 302 299 295 290 289 289 288 287 288 288 286 282 280 279 277 276 276 277 277 276 272 269 268
315 314 312 311 311 312 312 311 312 311 311 310 311 311 309 309 309 307 304 303 302 300 296 293 290 288 288 288 287 287 286 283 280 279 277 276 276 276 275 274 274 272 272
309 310 310 308 306 308 309 310 309 308 307 307 307 307 308 307 307 304 301 301 300 298 297 296 291 288 285 285 285 285 284 284 280 279 276 274 274 273 273 271 271 273 271
308 308 307 306 307 308 308 308 308 306 304 305 305 305 306 305 304 302 299 299 299 298 297 296 293 289 287 286 285 285 284 283 281 280 277 274 273 272 272 272 272 272 272
307 308 308 306 306 306 307 308 307 304 303 304 303 302 302 301 302 300 298 298 298 298 298 297 294 291 288 286 286 286 286 284 282 281 279 278 277 275 275 274 273 272 271
303 302 302 303 303 303 304 306 306 305 305 304 304 303 302 302 302 301 300 298 297 296 296 295 293 292 290 287 286 286 287 285 283 282 281 280 279 279 277 275 274 273 272
299 300 300 301 301 300 303 305 306 306 304 303 303 302 302 303 302 301 300 297 295 294 294 293 292 291 289 287 285 285 286 285 283 281 280 279 278 278 277 277 276 274 273
298 300 301 301 301 301 301 303 302 302 301 301 301 301 301 301 300 299 299 299 295 292 291 292 293 291 289 288 286 284 285 285 284 283 281 280 278 277 277 275 275 275 274
296 297 299 300 301 302 302 303 302 300 300 300 300 300 300 300 299 298 297 297 295 293 292 291 292 291 289 289 289 288 286 285 284 282 282 280 277 276 276 276 274 273 272
295 296 298 299 300 301 300 299 299 299 299 299 299 299 300 299 298 297 296 295 294 294 293 292 291 291 291 290 290 289 287 285 284 282 281 280 276 275 275 274 273 272 271
295 295 296 297 297 298 299 299 298 297 297 297 297 297 298 297 297 296 296 296 295 294 293 293 291 290 290 291 291 289 288 286 284 282 281 280 276 275 275 275 273 272 271
Height
5897 5896 5895 5894 5894 5894 5893 5893 5893 5892 5891 5891 5890 5890 5889 5888 5887 5886 5885 5885 5883 5883 5881 5881 5880 5879 5878 5877 5877 5877 5876 5876 5875 5875 5874 5874 5873 5873 5872 5872 5871 5870 5870
5896 5895 5894 5894 5893 5893 5892 5892 5892 5891 5890 5889 5889 5888 5888 5886 5886 5885 5884 5883 5882 5881 5880 5879 5878 5877 5876 5876 5875 5874 5874 5874 5873 5873 5872 5872 5871 5870 5870 5869 5869 5868 5867
5895 5894 5893 5893 5892 5892 5891 5891 5890 5890 5889 5888 5887 5886 5885 5885 5884 5883 5882 5881 5880 5879 5878 5877 5876 5875 5874 5873 5872 5872 5872 5871 5871 5870 5870 5869 5869 5868 5867 5867 5866 5866 5865
5895 5894 5893 5892 5891 5891 5890 5889 5889 5888 5887 5886 5885 5884 5883 5882 5881 5880 5879 5879 5878 5877 5876 5875 5874 5873 5871 5870 5870 5869 5869 5868 5868 5867 5867 5866 5865 5865 5865 5864 5863 5863 5862
5894 5893 5892 5891 5890 5889 5888 5887 5887 5886 5885 5884 5883 5882 5881 5879 5879 5878 5877 5876 5875 5874 5874 5872 5871 5870 5869 5868 5867 5866 5866 5865 5864 5864 5863 5863 5862 5862 5861 5861 5860 5859 5858
5893 5892 5891 5890 5889 5888 5887 5886 5885 5884 5884 5883 5882 5880 5879 5877 5877 5875 5875 5874 5873 5872 5871 5870 5868 5867 5866 5865 5864 5863 5862 5862 5861 5861 5860 5859 5859 5858 5857 5857 5856 5856 5855
5893 5891 5890 5889 5888 5887 5886 5884 5884 5883 5882 5881 5880 5878 5876 5875 5874 5873 5872 5871 5870 5869 5867 5866 5865 5864 5863 5862 5861 5860 5858 5858 5857 5857 5856 5855 5854 5854 5853 5852 5852 5851 5851
5892 5890 5889 5887 5886 5885 5884 5883 5882 5881 5880 5879 5878 5876 5875 5873 5871 5870 5869 5868 5866 5865 5864 5863 5862 5861 5860 5858 5857 5856 5855 5854 5853 5852 5852 5851 5850 5849 5848 5848 5847 5847 5846
5891 5889 5887 5886 5885 5884 5883 5881 5880 5879 5878 5877 5875 5874 5872 5871 5869 5868 5866 5865 5863 5862 5861 5860 5858 5857 5856 5855 5853 5853 5851 5850 5849 5848 5848 5847 5845 5844 5843 5843 5843 5842 5842
5890 5888 5886 5885 5884 5883 5882 5880 5879 5877 5876 5874 5873 5871 5870 5868 5867 5866 5864 5862 5860 5859 5858 5856 5855 5853 5852 5851 5849 5848 5847 5846 5845 5844 5843 5841 5841 5840 5839 5839 5838 5837 5837
5889 5887 5886 5884 5883 5882 5880 5879 5877 5876 5874 5872 5871 5869 5867 5865 5864 5863 5861 5859 5857 5856 5854 5852 5850 5849 5847 5846 5845 5844 5843 5841 5840 5840 5838 5837 5836 5835 5834 5833 5832 5832 5832
5888 5886 5885 5883 5882 5880 5878 5877 5875 5873 5872 5870 5868 5866 5864 5862 5860 5859 5857 5855 5854 5852 5850 5848 5846 5844 5843 5841 5840 5839 5838 5837 5836 5835 5834 5832 5831 5830 5829 5828 5827 5827 5826
5887 5885 5884 5882 5880 5878 5877 5875 5873 5871 5869 5867 5865 5863 5861 5859 5857 5855 5853 5851 5850 5848 5846 5844 5842 5840 5839 5837 5835 5834 5833 5832 5831 5829 5828 5827 5826 5825 5824 5823 5822 5822 5821
5886 5884 5882 5880 5879 5877 5875 5872 5870 5868 5866 5864 5862 5859 5857 5855 5853 5850 5849 5847 5845 5843 5841 5839 5837 5835 5834 5832 5831 5829 5828 5826 5825 5824 5823 5822 5821 5819 5818 5818 5817 5817 5816
5884 5882 5880 5878 5876 5874 5872 5870 5868 5865 5863 5861 5859 5856 5853 5851 5848 5846 5843 5842 5840 5838 5836 5834 5832 5830 5828 5827 5825 5824 5822 5821 5819 5818 5817 5816 5815 5813 5812 5812 5811 5811 5810
5882 5880 5878 5876 5873 5871 5869 5867 5864 5862 5859 5857 5855 5852 5849 5847 5844 5841 5838 5836 5833 5832 5830 5828 5826 5824 5823 5821 5819 5818 5816 5815 5813 5812 5811 5809 5808 5807 5806 5805 5805 5804 5804
5879 5876 5874 5872 5870 5868 5865 5863 5860 5858 5855 5853 5850 5847 5845 5842 5839 5836 5833 5830 5828 5826 5824 5822 5820 5818 5817 5815 5813 5812 5810 5808 5807 5805 5804 5803 5802 5801 5800 5799 5798 5797 5797
5875 5872 5870 5868 5866 5863 5861 5858 5855 5853 5850 5847 5845 5842 5839 5836 5834 5830 5827 5825 5822 5820 5818 5816 5814 5812 5810 5808 5807 5805 5803 5801 5799 5798 5796 5795 5794 5793 5792 5791 5791 5790 5790
5871 5868 5866 5863 5860 5858 5855 5853 5850 5847 5844 5842 5839 5836 5833 5830 5828 5825 5822 5819 5816 5814 5812 5809 5808 5806 5804 5802 5800 5798 5796 5794 5792 5791 5789 5788 5787 5786 5785 5784 5783 5783 5782
5866 5863 5861 5858 5855 5853 5850 5847 5844 5841 5838 5836 5833 5830 5827 5824 5821 5818 5815 5812 5810 5807 5805 5802 5800 5798 5796 5795 5793 5791 5789 5787 5785 5783 5781 5780 5779 5778 5777 5777 5776 5775 5775
5861 5858 5855 5852 5850 5847 5844 5841 5838 5834 5831 5829 5826 5823 5820 5817 5814 5811 5808 5805 5802 5800 5797 5795 5793 5791 5789 5787 5785 5783 5781 5779 5778 5776 5774 5773 5772 5771 5769 5768 5767 5767 5766
5855 5852 5849 5846 5843 5840 5837 5834 5831 5827 5824 5822 5819 5816 5813 5810 5806 5803 5800 5797 5794 5792 5789 5787 5785 5783 5781 5779 5777 5775 5773 5771 5769 5768 5766 5765 5763 5762 5761 5760 5759 5758 5758
5847 5844 5842 5839 5836 5833 5830 5827 5824 5820 5817 5814 5811 5808 5805 5802 5799 5795 5792 5788 5785 5783 5781 5779 5777 5775 5773 5770 5768 5766 5764 5762 5761 5759 5757 5756 5754 5753 5752 5751 5750 5749 5749
5840 5837 5834 5831 5828 5825 5822 5819 5815 5812 5809 5806 5803 5800 5797 5794 5790 5787 5784 5780 5777 5774 5772 5770 5768 5766 5763 5761 5759 5757 5755 5753 5752 5749 5747 5747 5745 5744 5743 5742 5741 5740 5739
5832 5829 5826 5823 5820 5817 5814 5811 5807 5804 5801 5798 5795 5791 5788 5785 5782 5778 5775 5772 5769 5767 5763 5761 5758 5756 5753 5751 5749 5747 5745 5743 5742 5740 5738 5736 5735 5734 5733 5732 5731 5730 5729
5823 5820 5817 5814 5812 5808 5805 5802 5798 5795 5792 5789 5785 5782 5779 5776 5773 5770 5767 5764 5761 5758 5755 5752 5749 5747 5744 5741 5739 5736 5735 5733 5731 5730 5728 5726 5725 5724 5724 5723 5721 5720 5719